Flag for Germany Weather past 2 weeks in Oranienburg, Brandenburg, Germany

Now
72 °F

Passing clouds.


Feels Like: 77 °F
Forecast: 53 / 75 °F
Wind: 6 mph from Southeast

Location: Berlin-Tegel

Current Time: Sep 18, 2014 at 2:08:11 PM

Latest Report: Sep 18, 2014 at 1:00 PM


Visibility: 16 mi

Pressure: 29.97 "Hg

Humidity: 48%

Dew point: 52 °F

Location of OranienburgLocation

Historic Weather in Oranienburg — Graph

°F

Oranienburg temperature yesterday

Maximum temperature yesterday: 76 °F (at 5:00 PM)
Minimum temperature yesterday: 57 °F (at 7:00 AM)
Average temperature yesterday: 66 °F

Past Weeks' High & Low Weather Summary

 TemperatureHumidityPressure
High81 °F (Sep 6, 3:00 PM)95% (Sep 13, 7:00 AM)30.30 "Hg (Sep 13, 7:00 AM)
Low52 °F (Sep 9, 6:00 AM)35% (Sep 6, 4:00 PM)29.87 "Hg (Sep 6, 6:00 PM)
Average65 °F71%30.06 "Hg
* Reported Sep 3 1:00 PM — Sep 18 1:00 PM, Oranienburg, Weather by CustomWeather, © 2014

Note: Actual official high and low records may vary slightly from our data, if they occured in-between our weather recording intervals... More about our weather records

Advertising

Oranienburg weather history for previous 24 hours

 ConditionsComfort  
Time TempWeatherWind HumidityBarometerVisibility
1:00 PM
Sep 18
72 °FPassing clouds.6 mph48%29.97 "Hg16 mi
12:00 PM71 °FPassing clouds.6 mph51%29.98 "Hg16 mi
11:00 AM68 °FSunny.5 mph59%30.00 "Hg16 mi
10:00 AM65 °FSunny.5 mph65%30.00 "Hg12 mi
9:00 AM62 °FSunny.2 mph71%30.00 "Hg12 mi
8:00 AM58 °FSunny.3 mph77%30.00 "Hg12 mi
7:00 AM57 °FSunny.2 mph78%30.00 "Hg14 mi
6:00 AM58 °FClear.3 mph76%29.99 "Hg19 mi
5:00 AM58 °FClear.3 mph74%30.00 "Hg22 mi
4:00 AM60 °FClear.3 mph70%30.01 "Hg22 mi
3:00 AM61 °FClear.3 mph67%30.01 "Hg22 mi
2:00 AM62 °FClear.2 mph66%30.01 "Hg22 mi
1:00 AM63 °FClear.5 mph62%30.01 "Hg22 mi
12:00 AM65 °FClear.3 mph60%30.02 "Hg19 mi
11:00 PM
Sep 17
67 °FClear.3 mph59%30.02 "Hg19 mi
10:00 PM67 °FClear.3 mph61%30.02 "Hg19 mi
9:00 PM68 °FClear.3 mph65%30.02 "Hg16 mi
8:00 PM70 °FClear.3 mph60%30.01 "Hg16 mi
7:00 PM72 °FPassing clouds.5 mph55%30.00 "Hg15 mi
6:00 PM75 °FPassing clouds.5 mph49%30.00 "Hg16 mi
5:00 PM76 °FPassing clouds.5 mph46%30.01 "Hg16 mi
4:00 PM75 °FPassing clouds.5 mph48%30.01 "Hg16 mi
3:00 PM74 °FPassing clouds.6 mph49%30.03 "Hg12 mi
2:00 PM73 °FPassing clouds.6 mph52%30.04 "Hg11 mi
Weather by CustomWeather, © 2014

See weather overviewHow to use our weather pages